This is the latest recevied weather packets stored in our database for station/object LX0WX-13. If no packets are shown the sender has not sent any weather packets the latest 10 day(s).
| Time | Temp. | Humidity | Pressure | Rain* | Wind** | Luminosity | Snow |
|---|---|---|---|---|---|---|---|
| 1777276358 | 16.67° C | 31% | 1018.4 hPa | 0 mm | - | - | - |
| 1777276279 | 17.22° C | 31% | 1018.5 hPa | 0 mm | - | - | - |
| 1777275979 | 16.67° C | 31% | 1018.4 hPa | 0 mm | - | - | - |
| 1777275679 | 17.22° C | 32% | 1018.3 hPa | 0 mm | - | - | - |
| 1777275379 | 16.67° C | 34% | 1018.2 hPa | 0 mm | - | - | - |
| 1777275079 | 16.11° C | 34% | 1018.4 hPa | 0 mm | - | - | - |
| 1777274779 | 16.11° C | 35% | 1018.5 hPa | 0 mm | - | - | - |
| 1777274479 | 15.56° C | 36% | 1018.4 hPa | 0 mm | - | - | - |
| 1777274179 | 15° C | 36% | 1018.5 hPa | 0 mm | - | - | - |
| 1777273879 | 15° C | 36% | 1018.5 hPa | 0 mm | - | - | - |
| 1777273579 | 15° C | 36% | 1018.4 hPa | 0 mm | - | - | - |
| 1777273279 | 14.44° C | 37% | 1018.4 hPa | 0 mm | - | - | - |
| 1777272979 | 13.89° C | 37% | 1018.5 hPa | 0 mm | - | - | - |
| 1777272679 | 13.89° C | 37% | 1018.5 hPa | 0 mm | - | - | - |
| 1777272379 | 13.89° C | 37% | 1018.6 hPa | 0 mm | - | - | - |
| 1777272079 | 14.44° C | 38% | 1018.6 hPa | 0 mm | - | - | - |
| 1777271779 | 13.89° C | 41% | 1018.8 hPa | 0 mm | - | - | - |
| 1777271479 | 13.33° C | 42% | 1018.6 hPa | 0 mm | - | - | - |
| 1777271179 | 12.78° C | 43% | 1018.4 hPa | 0 mm | - | - | - |
| 1777270879 | 11.67° C | 44% | 1018.5 hPa | 0 mm | - | - | - |
| 1777270579 | 11.11° C | 45% | 1018.4 hPa | 0 mm | - | - | - |
| 1777270279 | 10.56° C | 44% | 1018.3 hPa | 0 mm | - | - | - |
| 1777269979 | 11.11° C | 45% | 1018.3 hPa | 0 mm | - | - | - |
| 1777269722 | 11.11° C | 45% | 1018.4 hPa | 0 mm | - | - | - |
| 1777269679 | 11.11° C | 45% | 1018.4 hPa | 0 mm | - | - | - |
* Rain latest hour (hover to see other rain measurements)
** Current wind speed in m/s (hover to see current wind gust speed)